Flag for Italy Weather past 2 weeks in Varese, Italy

Now
73 °F

Mild.


Feels Like: 75 °F
Forecast: 60 / 82 °F
Wind: 3 mph from Southwest

Location: Stabio

Current Time: Aug 2, 2015 at 1:00:56 PM

Latest Report: Aug 2, 2015 at 12:00 PM


Visibility: N/A

Pressure: 30.02 "Hg

Humidity: 71%

Dew point: 63 °F

Location of VareseLocation

Historic Weather in Varese — Graph

°F

Varese temperature yesterday

Maximum temperature yesterday: 69 °F (at 4:00 PM)
Minimum temperature yesterday: 61 °F (at 7:00 AM)
Average temperature yesterday: 64 °F

Past Weeks' High & Low Weather Summary

 TemperatureHumidityPressure
High94 °F (Jul 22, 4:00 PM)100% (Jul 25, 4:00 AM)30.04 "Hg (Jul 25, 4:00 AM)
Low57 °F (Aug 2, 6:00 AM)28% (Jul 26, 12:00 AM)29.62 "Hg (Jul 27, 6:00 PM)
Average74 °F70%29.85 "Hg
* Reported Jul 18 11:00 AM — Aug 2 11:00 AM, Varese, Weather by CustomWeather, © 2015

Note: Actual official high and low records may vary slightly from our data, if they occured in-between our weather recording intervals... More about our weather records

Advertising

Varese weather history for previous 24 hours

 ConditionsComfort  
Time TempWeatherWind HumidityBarometerVisibility
11:00 AM
Sun, Aug 2
71 °FMild.2 mph75%30.02 "HgN/A
10:00 AM69 °FMild.1 mph78%30.02 "HgN/A
9:00 AM65 °FMild.1 mph85%30.02 "HgN/A
8:00 AM62 °FCool.No wind94%30.03 "HgN/A
7:00 AM57 °FCool.2 mph95%30.03 "HgN/A
6:00 AM57 °FCool.2 mph98%30.04 "HgN/A
5:00 AM57 °FCool.2 mph98%30.04 "HgN/A
4:00 AM57 °FCool.No wind99%30.03 "HgN/A
3:00 AM58 °FCool.No wind99%30.03 "HgN/A
2:00 AM60 °FCool.1 mph96%30.03 "HgN/A
1:00 AM60 °FCool.No wind100%30.04 "HgN/A
12:00 AM61 °FCool.No wind100%30.03 "HgN/A
10:00 PM
Sat, Aug 1
61 °FCool.No wind98%30.02 "HgN/A
9:00 PM62 °FCool.No wind98%29.99 "HgN/A
7:00 PM63 °FMild.No wind93%30.01 "HgN/A
6:00 PM63 °FMild.No wind95%30.01 "HgN/A
5:00 PM65 °FMild.5 mph81%30.01 "HgN/A
4:00 PM69 °FMild.2 mph69%29.98 "HgN/A
3:00 PM68 °FMild.3 mph71%30.00 "HgN/A
2:00 PM68 °FMild.3 mph77%30.01 "HgN/A
1:00 PM67 °FMild.No wind71%30.01 "HgN/A
Weather by CustomWeather, © 2015

See weather overviewHow to use our weather pages